[[{"header":{"parameterUnit":"m.s-1","parameterCategory":1,"la1":30.2991,"la2":30.254,"lo1":-89.0895,"lo2":-89.0444,"dy":0.0017,"dx":0.0017,"nx":28,"ny":28,"refTime":"2025-06-20T21:00:00:Z","depth":0,"parameterNumber":2,"parameterNumberName":"U-component_of_WINDS"},"data":[0,0,0,0,0,0,0,0,0,0,0,0,0,0,0,0,0,0,0,0,0,0,0,0,0,0,0,0,0,0,0,0,0,0,0,0,0,0,0,0,0,0,0,0,0,0,0,0,0,0,0,0,0,0,0,0,0,0,1.0482,1.0482,0,1.0486,1.0486,1.0486,1.0469,1.0469,1.0468,1.0468,1.0471,1.0471,1.0472,0,0,0,0,0,0,0,0,0,0,0,0,0,1.046,1.046,1.0482,1.0482,1.0482,1.0486,1.0486,1.0486,1.0469,1.0469,1.0468,1.0468,1.0471,1.0471,1.0472,0,0,0,0,0,0,0,0,0,0,0,0,0,1.0467,1.046,1.0482,1.0474,1.0474,1.0486,1.0486,1.0486,1.0469,1.0469,1.0468,1.0467,1.047,1.0471,1.0472,1.0491,0,0,1.0474,1.0475,0,0,0,0,0,0,0,0,1.0467,1.0468,1.0475,1.0475,1.0474,1.0476,1.0479,1.0487,1.047,1.0471,1.0468,1.0467,1.0473,1.0474,1.0476,1.0491,1.0491,1.0474,1.0475,1.0475,1.0475,0,0,0,0,0,0,0,1.0466,1.0468,1.0483,1.0476,1.0475,1.047,1.0471,1.048,1.0476,1.0471,1.047,1.047,1.0473,1.0475,1.0476,1.0491,1.0474,1.0475,1.0475,1.0476,1.052,1.0521,0,0,0,0,0,0,1.0467,1.0467,1.0483,1.0483,1.0469,1.0471,1.0472,1.0476,1.0476,1.0475,1.0471,1.047,1.0474,1.0475,1.0476,1.0496,1.0475,1.0476,1.0476,1.052,1.0521,1.0521,0,0,0,0,0,0,1.0466,1.0468,1.0483,1.0475,1.0477,1.0473,1.0478,1.0477,1.0479,1.0476,1.0475,1.0474,1.0474,1.0475,1.0487,1.0496,1.0476,1.0477,1.0519,1.052,1.0521,1.0539,0,0,0,0,0,0,1.0466,1.0468,1.0476,1.0475,1.0477,1.0495,1.0479,1.0477,1.0481,1.0479,1.0479,1.0478,1.0473,1.0486,1.0488,1.0497,1.0477,1.0518,1.0519,1.0521,1.0537,1.0541,1.0543,0,0,0,0,0,1.0465,1.0481,1.0476,1.0478,1.0486,1.0495,1.0496,1.049,1.0482,1.0489,1.0486,1.0478,1.0496,1.0487,1.0489,1.0499,1.0517,1.0519,1.0521,1.0536,1.054,1.0543,0,0,0,0,0,0,1.0482,1.0481,1.0476,1.0492,1.0494,1.0492,1.0501,1.0495,1.0499,1.0497,1.0489,1.0489,1.0503,1.0502,1.0493,1.0517,1.0505,1.0507,1.0516,1.052,1.0522,1.0521,1.0478,0,0,0,0,0,1.0488,1.0496,1.0494,1.0508,1.051,1.0505,1.0509,1.0504,1.0506,1.0507,1.0505,1.0507,1.0512,1.0516,1.0521,1.0538,1.0537,1.0546,1.0549,1.0551,1.0552,1.0559,1.0563,1.0527,1.0527,1.0527,0,0,1.05,1.05,1.0505,1.0512,1.0513,1.052,1.0506,1.0515,1.052,1.0508,1.0519,1.0518,1.0519,1.0533,1.0539,1.0533,1.0562,1.0553,1.0555,1.0555,1.0561,1.0565,1.0568,1.0528,1.0528,1.0527,0,0,1.0525,1.0526,1.0538,1.0539,1.0541,1.0538,1.054,1.054,1.0539,1.055,1.0541,1.0547,1.0557,1.0558,1.056,1.0585,1.0577,1.0587,1.0601,1.0608,1.0611,1.0613,1.0621,1.0623,1.0588,1.0588,1.0589,0,1.0539,1.055,1.0544,1.0553,1.0556,1.0546,1.0556,1.0558,1.0561,1.0563,1.0557,1.0568,1.0569,1.0582,1.0588,1.0591,1.0593,1.0586,1.0611,1.0613,1.0616,1.0622,1.0625,1.059,1.0589,1.0589,1.0589,0,1.0566,1.0574,1.0583,1.0586,1.059,1.06,1.0595,1.06,1.0595,1.0593,1.0604,1.0604,1.0608,1.0611,1.0607,1.0624,1.062,1.0612,1.06,1.062,1.0626,1.0629,1.0591,1.0591,1.059,1.059,0,0,1.0601,1.0601,1.0604,1.0605,1.0606,1.0612,1.0621,1.0625,1.0629,1.0632,1.0638,1.0647,1.064,1.0642,1.0638,1.0644,1.0662,1.0636,1.0636,1.0639,1.0679,1.0683,1.0686,1.0657,1.0658,1.0658,1.0678,0,1.0624,1.064,1.0635,1.065,1.0656,1.0647,1.0655,1.0656,1.0654,1.0659,1.0657,1.0663,1.0654,1.0655,1.0661,1.0659,1.067,1.0657,1.0662,1.0663,1.0661,1.069,1.0695,1.0713,1.0681,1.0681,1.0682,0,1.0652,1.0656,1.0672,1.0671,1.0674,1.0681,1.0684,1.0689,1.069,1.0688,1.069,1.0684,1.0693,1.0682,1.0692,1.0684,1.0686,1.0685,1.0686,1.0685,1.0672,1.0688,1.0719,1.0722,1.0686,1.0685,1.0685,0,1.0674,1.0683,1.0693,1.0694,1.0694,1.0699,1.0699,1.07,1.0702,1.0705,1.0706,1.0711,1.0712,1.0715,1.071,1.0703,1.0721,1.071,1.0719,1.0719,1.0722,1.0721,1.0752,1.0726,1.0726,1.0726,1.0726,0,1.0698,1.0708,1.0702,1.0709,1.0719,1.0714,1.0724,1.0723,1.0723,1.0729,1.0721,1.0727,1.0721,1.0725,1.0721,1.073,1.0731,1.0729,1.0728,1.0729,1.0729,1.0729,1.0727,1.0727,1.0726,1.0726,1.0726,0,1.0723,1.072,1.073,1.0729,1.0729,1.0737,1.0736,1.0741,1.0739,1.0746,1.0747,1.0743,1.0748,1.0744,1.0749,1.0746,1.0757,1.0755,1.0757,1.0756,1.0764,1.0763,1.0794,1.0798,1.0771,1.0771,1.0772,0,1.0738,1.0746,1.0745,1.0748,1.0749,1.0754,1.0757,1.0752,1.0755,1.0756,1.0761,1.0765,1.0768,1.0777,1.0774,1.0777,1.0774,1.0785,1.0774,1.0775,1.0772,1.0771,1.0771,1.0787,1.0787,1.0787,1.0787,0,1.0765,1.0763,1.0767,1.077,1.0774,1.0776,1.0778,1.0781,1.0776,1.0779,1.0784,1.0787,1.0791,1.0795,1.0798,1.0798,1.0791,1.0791,1.0793,1.0793,1.0793,1.0792,1.0761,1.079,1.079,1.0789,1.0789,1.0789,1.0784,1.0789,1.079,1.0794,1.0795,1.0797,1.0802,1.08,1.0804,1.0808,1.0805,1.081,1.0811,1.0813,1.0814,1.0818,1.0813,1.0816,1.0817,1.0817,1.0818,1.0794,1.0819,1.0819,1.0818,1.0818,1.0818,0,1.0809,1.0808,1.0813,1.0815,1.0819,1.0814,1.0815,1.0818,1.0823,1.0824,1.0827,1.0833,1.0836,1.0834,1.0838,1.0841,1.0838,1.0842,1.0841,1.084,1.0822,1.082,1.0844,1.0844,1.0844,1.0844,1.0844,1.0844,1.0822,1.083,1.0828,1.0837,1.0837,1.0842,1.0843,1.0845,1.0845,1.0851,1.0855,1.0853,1.0853,1.0856,1.0859,1.0858,1.0859,1.0864,1.0862,1.0845,1.0842,1.0839,1.0837,1.0864,1.0864,1.0879,1.0879,1.0879]},{"header":{"parameterUnit":"m.s-1","parameterCategory":1,"la1":30.2991,"la2":30.254,"lo1":-89.0895,"lo2":-89.0444,"dy":0.0017,"dx":0.0017,"nx":28,"ny":28,"refTime":"2025-06-20T21:00:00:Z","depth":0,"parameterNumber":3,"parameterNumberName":"V-component_of_WINDS"},"data":[0,0,0,0,0,0,0,0,0,0,0,0,0,0,0,0,0,0,0,0,0,0,0,0,0,0,0,0,0,0,0,0,0,0,0,0,0,0,0,0,0,0,0,0,0,0,0,0,0,0,0,0,0,0,0,0,0,0,0.5623,0.5624,0,0.5703,0.5704,0.5705,0.5744,0.5744,0.5744,0.5744,0.5824,0.5826,0.5828,0,0,0,0,0,0,0,0,0,0,0,0,0,0.5502,0.5504,0.5623,0.5624,0.5625,0.5703,0.5704,0.5705,0.5744,0.5744,0.5744,0.5744,0.5823,0.5826,0.5828,0,0,0,0,0,0,0,0,0,0,0,0,0,0.5565,0.5504,0.5623,0.5654,0.5657,0.5703,0.5704,0.5705,0.5744,0.5744,0.5744,0.5744,0.5822,0.5825,0.5829,0.5849,0,0,0.5838,0.584,0,0,0,0,0,0,0,0,0.5562,0.557,0.5648,0.5652,0.5656,0.5713,0.5691,0.5753,0.5744,0.5711,0.5744,0.5744,0.5787,0.5793,0.5808,0.5853,0.5856,0.5839,0.5841,0.5842,0.5843,0,0,0,0,0,0,0,0.5557,0.5566,0.5655,0.5649,0.5654,0.5663,0.5672,0.5703,0.5748,0.5714,0.5717,0.5726,0.5789,0.5805,0.581,0.5857,0.5839,0.5842,0.5844,0.5845,0.5922,0.5922,0,0,0,0,0,0,0.5548,0.5563,0.5652,0.5657,0.5608,0.5665,0.5675,0.5695,0.5748,0.5756,0.5726,0.5727,0.5799,0.5806,0.5813,0.5841,0.5842,0.5845,0.5847,0.5922,0.5922,0.5922,0,0,0,0,0,0,0.5545,0.5556,0.5649,0.5611,0.5623,0.5667,0.5689,0.5696,0.5712,0.5757,0.5765,0.5734,0.58,0.5809,0.584,0.5844,0.5847,0.5849,0.5922,0.5922,0.5922,0.5895,0,0,0,0,0,0,0.5542,0.5554,0.5563,0.5611,0.5625,0.5675,0.5689,0.5698,0.5718,0.5721,0.5767,0.5774,0.58,0.5835,0.5843,0.5848,0.5852,0.5922,0.5922,0.5922,0.5896,0.5894,0.5893,0,0,0,0,0,0.5537,0.5552,0.5563,0.5574,0.5637,0.5675,0.5683,0.5713,0.5718,0.5727,0.5755,0.5773,0.5842,0.5838,0.5847,0.5854,0.5921,0.5922,0.5922,0.5896,0.5894,0.5893,0,0,0,0,0,0,0.5503,0.5559,0.5572,0.5603,0.5634,0.5681,0.5693,0.5711,0.5741,0.5742,0.5778,0.5788,0.5816,0.5838,0.5832,0.5876,0.5883,0.5885,0.586,0.5859,0.5858,0.5852,0.5855,0,0,0,0,0,0.55,0.5526,0.5573,0.5595,0.561,0.5649,0.5667,0.5687,0.5721,0.5734,0.5765,0.5796,0.5825,0.5843,0.5872,0.5899,0.5909,0.5908,0.5906,0.5905,0.5907,0.5922,0.5922,0.5923,0.5923,0.5923,0,0,0.5492,0.5525,0.554,0.5589,0.5616,0.5642,0.566,0.5687,0.5707,0.5738,0.5769,0.5793,0.583,0.5859,0.5873,0.5878,0.5908,0.5905,0.5904,0.5906,0.5922,0.5922,0.5922,0.5923,0.5923,0.5923,0,0,0.5491,0.5519,0.5541,0.5567,0.5607,0.5633,0.5638,0.5683,0.57,0.5732,0.5756,0.578,0.5829,0.5854,0.5873,0.5882,0.5899,0.589,0.5883,0.5898,0.5898,0.5898,0.5901,0.5901,0.5891,0.5891,0.5891,0,0.5477,0.5518,0.555,0.5576,0.5597,0.5627,0.5649,0.5672,0.5719,0.5733,0.5738,0.58,0.5827,0.5862,0.5864,0.5879,0.5886,0.5885,0.5895,0.5895,0.5896,0.5899,0.59,0.589,0.589,0.589,0.589,0,0.5498,0.5526,0.5538,0.5584,0.5606,0.5629,0.5665,0.5683,0.5702,0.5727,0.5759,0.5792,0.5828,0.5838,0.5856,0.5876,0.5878,0.5888,0.5897,0.5894,0.5898,0.5899,0.5888,0.5889,0.5889,0.5889,0,0,0.5479,0.5541,0.5545,0.5566,0.5612,0.5634,0.5659,0.5695,0.571,0.5741,0.5762,0.5803,0.5813,0.5835,0.5856,0.5869,0.5873,0.5878,0.5879,0.5876,0.5896,0.5888,0.5889,0.5884,0.5885,0.5885,0.5893,0,0.5485,0.5531,0.5561,0.5595,0.5621,0.5649,0.5671,0.5701,0.5725,0.575,0.5775,0.5804,0.5815,0.5828,0.5842,0.587,0.5878,0.5869,0.5904,0.5905,0.5895,0.5891,0.5883,0.5889,0.5895,0.5895,0.5895,0,0.5498,0.5529,0.5566,0.5609,0.5621,0.564,0.5675,0.5699,0.5733,0.5749,0.5773,0.5795,0.5821,0.5827,0.5864,0.5858,0.5873,0.5889,0.589,0.5895,0.59,0.5896,0.5892,0.5893,0.5898,0.5898,0.5898,0,0.5481,0.5531,0.556,0.5577,0.5628,0.564,0.5662,0.5696,0.5716,0.5746,0.5759,0.5792,0.581,0.5834,0.5864,0.5865,0.5897,0.5906,0.5911,0.5911,0.5917,0.5916,0.5916,0.5927,0.5927,0.5927,0.5927,0,0.5485,0.5506,0.5553,0.5571,0.5595,0.5629,0.5652,0.5676,0.5706,0.5729,0.5755,0.5775,0.5813,0.5837,0.586,0.5887,0.5895,0.5908,0.5914,0.5906,0.5905,0.5917,0.5918,0.5927,0.5927,0.5927,0.5927,0,0.547,0.5502,0.5535,0.558,0.5592,0.5608,0.5647,0.5665,0.5689,0.5717,0.5726,0.5764,0.5795,0.5826,0.5867,0.5883,0.5909,0.5917,0.5897,0.5901,0.5904,0.5904,0.5912,0.5915,0.5924,0.5924,0.5923,0,0.547,0.5487,0.5534,0.5552,0.5573,0.56,0.562,0.5653,0.5673,0.5713,0.5726,0.5758,0.5786,0.5833,0.5864,0.5895,0.5905,0.5905,0.5909,0.5901,0.5905,0.5903,0.5905,0.5904,0.5904,0.5904,0.5904,0,0.5468,0.5483,0.5511,0.5545,0.5568,0.5596,0.5625,0.5637,0.5676,0.5697,0.5728,0.575,0.5792,0.5823,0.5858,0.588,0.5898,0.5902,0.5905,0.5897,0.5885,0.5892,0.5894,0.5902,0.5902,0.5902,0.5902,0.5902,0.5461,0.5477,0.5513,0.5543,0.5569,0.5595,0.5614,0.5641,0.5668,0.5705,0.5723,0.5754,0.5788,0.5837,0.5858,0.5883,0.5888,0.5892,0.5893,0.5894,0.5892,0.5881,0.5889,0.5889,0.5889,0.5889,0.5889,0,0.5459,0.5484,0.5511,0.5551,0.5575,0.559,0.5623,0.5642,0.5669,0.5699,0.5726,0.5762,0.5793,0.5826,0.5859,0.5872,0.5881,0.5879,0.5879,0.5883,0.5885,0.588,0.5871,0.5871,0.5871,0.5871,0.5871,0.5871,0.5462,0.5491,0.551,0.5551,0.5575,0.5607,0.5624,0.5648,0.5672,0.5711,0.5737,0.5759,0.579,0.5825,0.5854,0.5863,0.5874,0.5869,0.5881,0.5882,0.5883,0.5885,0.5879,0.5871,0.5871,0.5877,0.5877,0.5877]}]]